Regional Weather Roundup
Issued by NWS

Home | Current Version | Previous Version | Text Only | Print | Product List | Glossary Off
Versions: 1 2 3 4 5 6 7 8 9 10 11 12 13 14 15 16 17 18 19 20 21 22 23 24 25 26 27 28 29 30 31 32 33 34 35 36 37 38 39 40 41 42 43 44 45 46 47 48 49 50

000
ASUS43 KLMK 032310
RWRKY
KENTUCKY REGIONAL WEATHER ROUNDUP
NATIONAL WEATHER SERVICE LOUISVILLE KY
700 PM EDT THU SEP 03 2015

NOTE "FAIR" INDICATES FEW OR NO CLOUDS BELOW 12,000 FEET
WITH NO SIGNIFICANT WEATHER AND/OR OBSTRUCTIONS TO VISIBILITY.

KYZ001>023-026-027-061>063-070>075-040000-
WESTERN AND SOUTH CENTRAL KENTUCKY

CITY           SKY/WX    TMP DP  RH WIND       PRES   REMARKS
PADUCAH        MOSUNNY   88  69  53 CALM      29.92F HX  92
HENDERSON      SUNNY     90  66  45 CALM      29.92S HX  92
OWENSBORO      SUNNY     89  70  53 S3        29.93F HX  94
HOPKINSVILLE   SUNNY     89  68  50 NW5       29.93S HX  92
BOWLING GREEN  LGT RAIN  83  71  67 E7        29.94F
GLASGOW        MOSUNNY   87  65  46 CALM      29.95S
$$

KYZ024-025-028>034-038-045-046-053-040000-
NORTH CENTRAL KENTUCKY

CITY           SKY/WX    TMP DP  RH WIND       PRES   REMARKS
LOUISVILLE/SDF MOSUNNY   90  63  40 W3        29.92F HX  91
LOUISVILLE/LOU SUNNY     90  64  42 SW3       29.94S HX  91
FORT KNOX      SUNNY     87  67  51 NW3       29.93F
$$

KYZ035>037-039>044-047>052-055>060-089>105-040000-
NORTHEAST KENTUCKY

CITY           SKY/WX    TMP DP  RH WIND       PRES   REMARKS
LEXINGTON      SUNNY     88  64  44 NW6       29.96F
COVINGTON      MOSUNNY   88  65  46 W6        29.95S HX  90
FRANKFORT      SUNNY     88  64  44 NW3       29.94F
$$

KYZ054-064>069-076>088-106>120-040000-
SOUTHEAST KENTUCKY

CITY           SKY/WX    TMP DP  RH WIND       PRES   REMARKS
JACKSON        MOSUNNY   83  69  62 CALM      29.99S
LONDON         SUNNY     83  64  52 SW5       29.98S
SOMERSET       SUNNY     86  63  45 NW6       29.97S
MIDDLESBORO    SUNNY     84  70  61 W3        29.97S
MONTICELLO     CLEAR     86  71  60 CALM      29.99F HX  91
$$




USA.gov is the U.S. government's official web portal to all federal, state and local government web resources and services.